Hourly Data Report for April 29, 2021

OTTAWA INTL A
ONTARIO
Current Station Operator: NAVCAN

45°19'00.000" N
75°40'00.000" W
114.90 m
6106001
71628
YOW

Download Data

Hourly Data (April 2021)
Hourly Data Report for April 29, 2021
TIME
LST
Temp Definition
°C
Dew Point Definition
°C
Rel Hum Definition
%
Precip. Amount Definition
mm

Wind Dir Definition
10's deg

Wind Spd Definition
km/h
Visibility Definition
km
Stn Press Definition
kPa
Hmdx Definition


Wind Chill Definition


Weather Definition


00:00 8.8 7.5 92   35 9 24.1 99.70     LegendNANA
01:00 8.3 6.9 91   36 10 24.1 99.65     Mostly Cloudy
02:00 7.9 7.0 94   33 10 24.1 99.61     LegendNANA
03:00 7.9 6.9 93   30 8 24.1 99.61     LegendNANA
04:00 8.3 6.4 88   33 13 24.1 99.59     Cloudy
05:00 8.2 7.0 92   29 8 24.1 99.56     LegendNANA
06:00 8.6 6.7 87   34 13 24.1 99.47     LegendNANA
07:00 9.6 6.9 83   31 5 24.1 99.55     Mostly Cloudy
08:00 10.9 7.3 78   36 9 24.1 99.54     LegendNANA
09:00 12.7 7.9 72   6 14 24.1 99.37     LegendNANA
10:00 13.8 7.5 66   7 13 24.1 99.34     Mostly Cloudy
11:00 14.5 7.2 61   9 9 24.1 99.29     LegendNANA
12:00 15.5 6.2 53   7 9 24.1 99.23     LegendNANA
13:00 16.3 5.7 49   11 13 24.1 99.16     Mostly Cloudy
14:00 15.9 5.2 49   11 7 24.1 99.09     LegendNANA
15:00 15.5 5.9 52   11 11 24.1 98.89     LegendNANA
16:00 15.7 6.0 52   12 10 24.1 98.81     Mostly Cloudy
17:00 15.4 6.6 55   10 9 24.1 98.72     LegendNANA
18:00 14.7 7.2 61   15 5 24.1 98.74     LegendNANA
19:00 12.9 6.8 66   36 2 24.1 98.67     Mostly Cloudy
20:00 13.2 6.2 63   0 1 24.1 98.57     LegendNANA
21:00 12.6 6.5 66   27 5 24.1 98.55     LegendNANA
22:00 12.2 7.6 73   28 10 24.1 98.51     Rain
23:00 11.1 8.8 85   29 9 16.1 98.44     Rain

Notes on Data Quality.

Legend

  • E = Estimated
  • M = Missing
  • NA = Not Available*
  • [empty] = Indicates an unobserved value
Date modified: